Location: Dieppe
(49.9230°N, 1.0775°E)
Time: 20:38:50
(UTC+02:00)

ISS - Visible Passes

Search period start: 21 May 2018 00:00
Search period end: 31 May 2018 00:00
Orbit: 402 x 407 km, 51.6° (Epoch: 22 May)

Date Brightness Start Highest point End Pass type
(mag) Time Alt. Az. Time Alt. Az. Time Alt. Az.
21 May -4.0 00:43:45 10° WSW 00:47:02 82° SSE 00:50:18 10° ENE visible
21 May -3.4 02:20:23 10° W 02:23:38 61° N 02:26:53 10° E visible
21 May -4.0 03:56:56 10° WNW 04:00:13 73° SSW 04:03:28 10° ESE visible
21 May -3.9 23:51:39 10° SW 23:54:53 58° SSE 23:58:06 10° ENE visible
22 May -3.4 01:28:08 10° W 01:31:23 63° N 01:34:39 10° ENE visible
22 May -3.9 03:04:45 10° WNW 03:08:02 84° NNE 03:11:18 10° ESE visible
22 May -2.9 04:41:27 10° W 04:44:17 28° SW 04:47:08 10° SSE visible
22 May -3.4 22:59:41 10° SW 23:02:46 38° SSE 23:05:51 10° E visible
23 May -3.6 00:35:52 10° W 00:39:09 72° N 00:42:25 10° ENE visible
23 May -3.6 02:12:32 10° WNW 02:15:48 69° N 02:19:04 10° E visible
23 May -3.5 03:49:06 10° W 03:52:13 42° SSW 03:55:20 10° SE visible
23 May -3.9 23:43:38 10° WSW 23:46:55 89° N 23:50:12 10° ENE visible
24 May -3.4 01:20:17 10° W 01:23:33 62° N 01:26:48 10° E visible
24 May -4.0 02:56:50 10° WNW 03:00:05 64° SSW 03:00:16 62° S visible
24 May -3.9 22:51:28 10° WSW 22:54:42 67° SSE 22:57:58 10° ENE visible
25 May -3.4 00:28:01 10° W 00:31:15 62° N 00:34:31 10° E visible
25 May -4.0 02:04:36 10° WNW 02:07:53 88° SSW 02:08:14 69° ESE visible
25 May -3.5 23:35:42 10° W 23:38:58 68° N 23:42:14 10° ENE visible
26 May -3.7 01:12:21 10° WNW 01:15:37 74° NNE 01:17:09 29° E visible
26 May -1.6 02:48:56 10° W 02:49:45 16° W 02:49:45 16° W visible
26 May -3.7 22:43:24 10° WSW 22:46:41 82° NNW 22:49:59 10° ENE visible
27 May -3.4 00:20:04 10° WNW 00:23:20 64° N 00:26:16 12° E visible
27 May -3.0 01:56:37 10° WNW 01:58:53 38° W 01:58:53 38° W visible
27 May -3.3 23:27:46 10° W 23:31:01 61° N 23:34:16 10° E visible
28 May -4.0 01:04:20 10° WNW 01:07:37 80° SSW 01:08:08 59° SE visible
28 May -3.4 22:35:25 10° W 22:38:41 65° N 22:41:57 10° ENE visible
29 May -3.8 00:12:02 10° WNW 00:15:20 79° NNE 00:17:26 20° E visible
29 May -2.0 01:48:41 10° W 01:50:03 20° W 01:50:03 20° W visible
29 May -3.5 23:19:44 10° WNW 23:23:00 67° N 23:26:15 10° E visible
30 May -3.6 00:56:17 10° WNW 00:59:23 48° SSW 00:59:23 48° SSW visible
